sat.trackr.live / text

‹ back to catalog

KOWSAR 1.5

NORAD 67264 · 2025-313S

PAYLOAD ACTIVE UNKNOWN

§ Identity

Operator
Country
IRAN
Launch date
2025-12-28
Launch site
VOSTO
Launch vehicle
Mass (kg)
RCS (m²)

External: N2YO · Heavens-Above · Gunter

§ Orbital elements

Epoch: 2026-09-20T04:46:31.033056Z

Period
94.53 min
Inclination
97.3944°
Eccentricity
0.0015430
Mean motion
15.23255704 rev/d
Perigee alt
485.4 km
Apogee alt
506.6 km
Semi-major
6,874.2 km
B*
1.5818e-4
RAAN
336.4981°
Arg perigee
41.1607°
Mean anomaly
319.0791°
Rev number
4,040

§ Raw data

KOWSAR 1.51 67264U 25313S   26263.19897029  .00003688  00000+0  15818-3 0  99932 67264  97.3944 336.4981 0015430  41.1607 319.0791 15.23255704 40401

JSON: /api/v1/satellites/67264 · /tle

For live sub-satellite position, see the globe view (requires WebGL).

§ Visibility from observer

Set your observer location to see the next 7 days of passes ≥ 10°. The values pass through the URL so the page stays shareable.

No JS? Fill the form by hand. The geolocation button needs JavaScript.

§ Radio — SatNOGS DB

ModeDescriptionDownlinkUplink
LoRa LoRa (SF 10, BW 125) 863.400 MHz
LoRa LoRa (SF 8, BW 125) 436.100 MHz

2 transmitters · refreshed weekly from db.satnogs.org